This demonstration page uses our WeatherBlox Daily Observations layout. Learn more.

Left ArrowRight Arrow

Hourly Observations for April 4, 2022

Temp ( °F °C ) Dew Point ( °F °C ) Humidity (%) Winds ( mph kmh ) Pressure ( in mb ) Visibility ( mi km ) Precip ( " mm )
3:53 am 03:53 Clear 35 1.7 29 -1.7 78 78 N 9 15 29.99 1016 10 16 0.00 0.00
4:53 am 04:53 Clear 32 0 27 -2.8 82 82 N 8 13 30.00 1016 10 16 0.00 0.00
5:53 am 05:53 Clear 27 -2.8 24 -4.4 89 89 NE 6 9 30.00 1016 10 16 0.00 0.00
6:53 am 06:53 Clear 25 -3.9 23 -5 92 92 N 5 7 30.01 1016 10 16 0.00 0.00
7:53 am 07:53 Sunny 27 -2.8 24 -4.4 89 89 N 3 6 30.04 1017 9 14 0.00 0.00
8:53 am 08:53 Sunny 32 0 28 -2.2 85 85 ENE 5 7 30.04 1017 10 16 0.00 0.00
9:53 am 09:53 Sunny 39 3.9 28 -2.2 65 65 ESE 10 17 30.03 1017 10 16 0.00 0.00
10:53 am 10:53 Hazy 42 5.6 27 -2.8 55 55 SSE 7 11 30.03 1017 5 8 0.00 0.00
11:53 am 11:53 Sunny 46 7.8 26 -3.3 46 46 SSE 8 13 30.00 1016 10 16 0.00 0.00
12:53 pm 12:53 Sunny 51 10.6 25 -3.9 36 36 VRB 7 11 29.97 1015 10 16 0.00 0.00
1:53 pm 13:53 Sunny 56 13.3 25 -3.9 30 30 S 10 17 29.91 1013 10 16 0.00 0.00
2:53 pm 14:53 Sunny 58 14.4 25 -3.9 28 28 SSE 12 19 29.86 1011 10 16 0.00 0.00
3:53 pm 15:53 Sunny 61 16.1 23 -5 23 23 S 16 26 29.81 1009 10 16 0.00 0.00
4:53 pm 16:53 Sunny 62 16.7 22 -5.6 21 21 S 13 20 29.76 1008 10 16 0.00 0.00
5:53 pm 17:53 Sunny 62 16.7 22 -5.6 21 21 S 12 19 29.73 1007 10 16 0.00 0.00
6:53 pm 18:53 Sunny 61 16.1 21 -6.1 21 21 S 13 20 29.73 1007 10 16 0.00 0.00
7:53 pm 19:53 Sunny 56 13.3 22 -5.6 27 27 S 12 19 29.70 1006 10 16 0.00 0.00
8:53 pm 20:53 Clear 53 11.7 24 -4.4 32 32 S 9 15 29.68 1005 10 16 0.00 0.00
9:53 pm 21:53 Clear 50 10 25 -3.9 38 38 S 13 20 29.68 1005 10 16 0.00 0.00
10:53 pm 22:53 Clear 51 10.6 26 -3.3 38 38 S 15 24 29.65 1004 10 16 0.00 0.00
11:53 pm 23:53 Clear 50 10 27 -2.8 41 41 SSE 14 22 29.62 1003 10 16 0.00 0.00

Powered by AerisWeather